SILO ALERT LOG
| Silo ID | Alert Type | Alert Message | Silo Type | Points | Depth (mm) | Strength | Temperature (°C) | Humidity (%) | Height (mm) | Volume (㎥) | Weight (t) | Flag | Time |
|---|---|---|---|---|---|---|---|---|---|---|---|---|---|
| DJSAD08 | Humidity | 습도센서 측정값이 80% 초과 | 평 | 573 | 2340 | 4919 | 8 | 83.8 | 5239 | 745.576 | 471.353 | 0 | 2024-01-13 23:39:32.000 |
| DJSSD11 | Temperature | 온도센서 측정값이 0도 미만 | 호퍼 | 449 | 7387 | 154 | -4.2 | 65.2 | 3842 | 28.961 | 15.784 | 0 | 2024-01-13 23:39:32.000 |
| DJHNR11 | Temperature | 온도센서 측정값이 0도 미만 | 호퍼 | 118 | 1862 | 3316 | -2.3 | 74.6 | 8517 | 129.774 | 82.043 | 11 | 2024-01-13 23:39:32.000 |
| DJSSD05 | Temperature | 온도센서 측정값이 0도 미만 | 평 | 843 | 2543 | 4894 | -45.4 | 43.8 | 5536 | 770.577 | 487.158 | 0 | 2024-01-13 23:39:32.000 |
| DJSSD01 | Humidity | 습도센서 측정값이 80% 초과 | 평 | 796 | 2582 | 4694 | 5.5 | 83.6 | 5497 | 765.175 | 483.744 | 0 | 2024-01-13 23:39:32.000 |
| DJSAD17 | Humidity | 습도센서 측정값이 80% 초과 | 평 | 448 | 3121 | 4765 | 4.6 | 81.9 | 4458 | 443.975 | 280.681 | 0 | 2024-01-13 23:39:31.000 |
| DJHNR13 | Temperature | 온도센서 측정값이 0도 미만 | 호퍼 | 20 | 2525 | 3043 | -2.3 | 70.1 | 7854 | 115.471 | 73.001 | 0 | 2024-01-13 23:39:31.000 |
| DJDJD04 | Humidity | 습도센서 측정값이 80% 초과 | 평 | 279 | 4208 | 4446 | 4.3 | 81.5 | 3471 | 420.601 | 265.904 | 11 | 2024-01-13 23:39:31.000 |
| DJSSD09 | Temperature | 온도센서 측정값이 0도 미만 | 평 | 124 | 2936 | 3404 | -45.4 | 0 | 4743 | 660.182 | 417.367 | 11 | 2024-01-13 23:39:31.000 |
| DJSAD18 | Humidity | 습도센서 측정값이 80% 초과 | 평 | 120 | 1373 | 5810 | 5.6 | 80.8 | 6206 | 617.988 | 390.692 | 11 | 2024-01-13 23:39:30.000 |
| DJHNR14 | Temperature | 온도센서 측정값이 0도 미만 | 호퍼 | 45 | 2986 | 4419 | -3.1 | 73.9 | 7393 | 105.525 | 66.713 | 11 | 2024-01-13 23:39:30.000 |
| DJHNR03 | Temperature | 온도센서 상태 이상 | 호퍼 | 0 | 15500 | 0 | -999 | -999 | -119 | 0 | 0 | 31 | 2024-01-13 23:39:24.000 |
| DJSSD12 | Temperature | 온도센서 상태 이상 | 호퍼 | 0 | 11350 | 0 | -999 | -999 | -120 | 0 | 0 | 31 | 2024-01-13 23:39:24.000 |
| DJHNR12 | Temperature | 온도센서 측정값이 0도 미만 | 호퍼 | 0 | 10500 | 0 | -1.3 | 77 | -120 | 0 | 0 | 31 | 2024-01-13 23:39:23.000 |
| DJSAD03 | Humidity | 습도센서 측정값이 80% 초과 | 평 | 449 | 1706 | 6196 | 3.7 | 84.5 | 7073 | 292.799 | 185.107 | 0 | 2024-01-13 22:39:40.000 |
| DJDJD03 | Humidity | 습도센서 측정값이 80% 초과 | 평 | 53 | 5521 | 5111 | 3.4 | 81.6 | 2158 | 261.448 | 165.287 | 0 | 2024-01-13 22:39:40.000 |
| DJSAD01 | Humidity | 습도센서 측정값이 80% 초과 | 평 | 484 | 1518 | 7377 | 1.9 | 84.6 | 7261 | 300.581 | 190.027 | 0 | 2024-01-13 22:39:40.000 |
| DJSAD02 | Humidity | 습도센서 측정값이 80% 초과 | 평 | 387 | 1138 | 4292 | 2.4 | 85.5 | 7641 | 316.341 | 199.991 | 11 | 2024-01-13 22:39:39.000 |
| DJHNR01 | Humidity | 습도센서 측정값이 80% 초과 | 호퍼 | 471 | 4315 | 4910 | 5.8 | 99 | 11064 | 472.262 | 298.564 | 13 | 2024-01-13 22:39:33.000 |
| DJSSD05 | Temperature | 온도센서 측정값이 0도 미만 | 평 | 849 | 2544 | 4886 | -45.4 | 43.5 | 5535 | 770.41 | 487.053 | 0 | 2024-01-13 22:39:33.000 |
[첫 페이지] [9956] [9957] [9958] [9959] 9960 [9961] [9962] [9963] [9964] [마지막 페이지]